Weather History for KICR - August, 2014

Change the Weather History Date:

Sunday, August 10, 2014

  Actual Average Record
Temperature  
Mean Temperature 71 °F 76 °F  
Max Temperature 82 °F 88 °F 94 °F (2010)
Min Temperature 60 °F 63 °F 54 °F (2012)
Degree Days  
Heating Degree Days 0 0  
Month to date heating degree days 0 0  
Since 1 June heating degree days 49 59  
Since 1 July heating degree days 12 5  
Cooling Degree Days 6 11  
Month to date cooling degree days 82 112  
Year to date cooling degree days 566 618  
Since 1 June cooling degree days 485 588  
Growing Degree Days 23 (Base 50)    
Moisture  
Dew Point 63 °F    
Average Humidity 72    
Maximum Humidity 93    
Minimum Humidity 51    
Precipitation  
Precipitation 0.03 in 0.09 in 1.29 in (2010)
Month to date precipitation 2.52 0.85  
Year to date precipitation 11.72 15.53  
Sea Level Pressure  
Sea Level Pressure 30.10 in    
Wind  
Wind Speed 10 mph (NNW)    
Max Wind Speed 23 mph    
Max Gust Speed 29 mph    
Visibility 10 miles    
Events Rain , Thunderstorm    
T = Trace of Precipitation, MM = Missing Value Source: NWS Daily Summary

Daily Weather History Graph

Daily Weather History Graph

Search for Another Location

Airport or City:

Trip Planner

Search our weather history database for the weather conditions in past years. The results will help you decide how hot, cold, wet, or windy it might be!

Date:

Astronomy

Aug. 10, 2014 Rise Set
Actual Time 6:38 AM CDT 8:49 PM CDT
Civil Twilight 6:07 AM CDT 9:20 PM CDT
Nautical Twilight 5:28 AM CDT 9:59 PM CDT
Astronomical Twilight 4:45 AM CDT 10:42 PM CDT
Moon 8:35 PM CDT (8/10) 6:34 AM CDT (8/10)
Length of Visible Light 15h 13m
Length of Day
14h 10m
Full, 100% of the Moon is Illuminated
Aug 10
Full
Aug 10
Full
Aug 17
Last Quarter
Aug 25
New
Sep 2
First Quarter

Hourly Weather History & Observations

Time (CDT) Temp. Heat Index Dew Point Humidity Pressure Visibility Wind Dir Wind Speed Gust Speed Precip Events Conditions
12:53 AM 68.0 °F - 64.9 °F 90% 30.00 in 10.0 mi SSE 6.9 mph - N/A   Partly Cloudy
1:53 AM 66.9 °F - 64.0 °F 90% 30.02 in 10.0 mi SSE 4.6 mph - N/A   Clear
2:53 AM 68.0 °F - 64.0 °F 87% 30.02 in 10.0 mi SSW 6.9 mph - N/A   Clear
4:53 AM 66.9 °F - 64.0 °F 90% 30.03 in 10.0 mi SW 5.8 mph - N/A   Clear
5:53 AM 66.9 °F - 63.0 °F 87% 30.03 in 10.0 mi WSW 8.1 mph - N/A   Clear
7:53 AM 68.0 °F - 64.9 °F 90% 30.07 in 10.0 mi WNW 9.2 mph - N/A   Clear
9:53 AM 71.1 °F - 64.9 °F 81% 30.09 in 10.0 mi NW 10.4 mph - N/A   Clear
10:53 AM 73.9 °F - 66.0 °F 76% 30.10 in 10.0 mi NNW 9.2 mph - N/A   Partly Cloudy
11:53 AM 80.1 °F 81.7 °F 64.0 °F 58% 30.10 in 10.0 mi North 15.0 mph - N/A   Mostly Cloudy
12:38 PM 72.0 °F - 66.0 °F 81% 30.16 in 6.0 mi North 4.6 mph - 0.02 in Rain , Thunderstorm Light Thunderstorms and Rain
12:53 PM 73.9 °F - 66.9 °F 79% 30.12 in 10.0 mi NNE 6.9 mph - 0.02 in   Partly Cloudy
1:08 PM 75.0 °F - 66.9 °F 76% 30.15 in 9.0 mi NNE 10.4 mph - 0.00 in Rain , Thunderstorm Light Rain
1:26 PM 75.0 °F - 69.1 °F 82% 30.15 in 10.0 mi North 6.9 mph - 0.01 in   Mostly Cloudy
1:53 PM 79.0 °F - 66.9 °F 66% 30.10 in 10.0 mi NNW 18.4 mph - 0.01 in   Scattered Clouds
2:53 PM 80.1 °F 82.1 °F 66.0 °F 62% 30.11 in 10.0 mi NNW 20.7 mph - N/A   Scattered Clouds
3:53 PM 81.0 °F 82.7 °F 64.9 °F 58% 30.12 in 10.0 mi North 17.3 mph - N/A   Partly Cloudy
4:53 PM 80.1 °F 81.7 °F 64.0 °F 58% 30.12 in 10.0 mi North 11.5 mph - N/A   Scattered Clouds
5:53 PM 82.0 °F 83.1 °F 63.0 °F 52% 30.09 in 10.0 mi North 13.8 mph 19.6 mph N/A   Partly Cloudy
7:53 PM 78.1 °F - 60.1 °F 54% 30.11 in 10.0 mi North 8.1 mph - N/A   Clear
8:53 PM 72.0 °F - 60.1 °F 66% 30.12 in 10.0 mi North 6.9 mph - N/A   Clear
9:53 PM 68.0 °F - 55.9 °F 65% 30.14 in 10.0 mi North 3.5 mph - N/A   Clear
10:53 PM 64.9 °F - 55.9 °F 73% 30.17 in 10.0 mi North 5.8 mph - N/A   Clear
11:53 PM 62.1 °F - 54.0 °F 75% 30.17 in 10.0 mi North 5.8 mph - N/A   Clear